Flag for U.S.A. Weather past 2 weeks in Kilgore, Texas, U.S.A.

Now
57 °F

Clear.


Feels Like: 57 °F
Forecast: 57 / 84 °F
Wind: No wind

Location: Gregg County Airport


UV Index: 7 (High)

Visibility: 7 mi


Pressure: 29.93 "Hg

Humidity: 90%

Dew point: 54 °F

Location of KilgoreLocation

Historic Weather in Kilgore

°F

Kilgore temperature yesterday

Maximum temperature yesterday: 82 °F (at 4:53 PM)
Minimum temperature yesterday: 58 °F (at 6:53 AM)
Average temperature yesterday: 69 °F

Past Weeks' High & Low Weather Summary

 TemperatureHumidityPressure
High82 °F (Apr 10, 4:53 PM)100% (Apr 22, 8:03 AM)30.30 "Hg (Apr 22, 8:03 AM)
Low33 °F (Apr 15, 6:53 AM)25% (Apr 9, 3:53 PM)29.67 "Hg (Apr 13, 7:53 PM)
Average63 °F66%30.04 "Hg
* Reported Apr 8 5:53 AM — Apr 23 5:53 AM, Kilgore, Weather by CustomWeather, © 2014

Note: Actual official high and low records may vary slightly from our data, if they occured in-between our weather recording intervals... More about our weather records

Advertising

Historic Weather Conditions — Data for Previous 24 hours

 ConditionsComfort  
Time TempWeatherWind HumidityBarometerVisibility
5:53 AM
Apr 23
57 °FClear.No wind90%29.93 "Hg7 mi
4:53 AM57 °FFog.No wind90%29.91 "Hg6 mi
3:53 AM58 °FFog.No wind90%29.92 "Hg6 mi
2:53 AM60 °FClear.No wind90%29.91 "Hg7 mi
1:53 AM60 °FClear.No wind90%29.92 "Hg9 mi
12:53 AM62 °FClear.No wind83%29.93 "Hg10 mi
11:53 PM
Apr 22
62 °FClear.No wind86%29.93 "Hg10 mi
10:53 PM64 °FClear.No wind84%29.93 "Hg10 mi
9:53 PM66 °FClear.No wind81%29.93 "Hg10 mi
8:53 PM70 °FClear.No wind71%29.91 "Hg10 mi
7:53 PM75 °FSunny.No wind60%29.90 "Hg10 mi
6:53 PM79 °FScattered clouds.3 mph48%29.89 "Hg10 mi
5:53 PM81 °FSunny.No wind42%29.90 "Hg10 mi
4:53 PM82 °FScattered clouds.6 mph43%29.91 "Hg10 mi
3:53 PM80 °FPassing clouds.6 mph47%29.93 "Hg10 mi
2:53 PM80 °FScattered clouds.No wind51%29.95 "Hg10 mi
1:53 PM79 °FScattered clouds.No wind52%29.97 "Hg10 mi
12:53 PM77 °FScattered clouds.3 mph58%30.00 "Hg10 mi
11:53 AM75 °FScattered clouds.8 mph62%30.01 "Hg10 mi
10:53 AM73 °FScattered clouds.5 mph64%30.02 "Hg10 mi
9:53 AM67 °FPartly sunny.7 mph81%30.02 "Hg10 mi
8:53 AM63 °FFog.6 mph93%30.02 "Hg5 mi
8:03 AM61 °FFog.No wind100%30.02 "Hg1 mi
7:53 AM61 °FFog.No wind93%30.01 "Hg0 mi
Weather by CustomWeather, © 2014

See weather overview